Showing default

IRIDIUM 180, 43922

Orbit data source: Space-Track

IRIDIUM 180, 43922 is a payload satellite owned by Iridium (US) in LEO that was launched on Fri, 11 Jan 2019 UTC via an FALCON 9 launch vehicle from the Air Force Western Test Range (AFWTR). Payload-class satellites include a variety of spacecraft equipped with specific instruments for various scientific and technological missions. These include communications satellites like Starlink; space stations such as the ISS; scientific satellites like the Hubble; Earth observation satellites from companies like Planet Labs, Umbra, and HawkEye 360; GPS; miniature CubeSats for education and research; and military/defense satellites.

Loading next visibility...
Identifier
43922, 2019-002A
Orbit
LEO
Country
Flag of USUS
Related business
Manufacturer
NGIS SSG Gilbert
Mission
Operational Commercial Communications
Bus & Motor
ELITEBUS, Unknown motor
Mass
860 kg wet, 700 kg dry
Launch date (UTC)
2019-01-11 (7 years ago)
Launch vehicle
FALCON 9
Launch site
Air Force Western Test Range (AFWTR)
Object type
Payload
Rocket body
Debris
Shape & HBR
Trap Box + 2 Pan, 4.8 m
Radar Cross Section
10.154 m², Large (>1 m²)

Expand to show TLE details & history
Last TLE update: 8 hours ago

TLE from 8 hours ago
0 IRIDIUM 180
1 43922U 19002A   25303.80683718  .00000282  00000-0  93484-4 0  9990
2 43922  86.3929  89.4918 0002227  89.5138 270.6313 14.34216733356117
Epoch: 2025-10-30T19:21Z
TLE epoch observation values (Epoch: 2025-10-30T19:21:50.732Z)
Latitude
-0.00001°
Longitude
119.67008°
Altitude
780.704 km
Speed
7.464 km/s
True Right ascension
05h 57m 58s
True Declination
0° 00' 00"
Sunlit
Object was in full shadow at epoch
Visualization orbit readout
Latitude
Unknown
Longitude
Unknown
Altitude
Unknown
Speed
Unknown
Apparent Right ascension
Unknown
Apparent Declination
Unknown
Sunlit
N/A
Visualization observer readout
Local Sidereal Time
22:55:15
Azimuth
Unknown
Elevation
Unknown
Doppler factor
Unknown
Orbital elements
Apogee altitude
776.228 km
Perigee altitude
773.042 km
Semi-major axis
7,152.772 km
Eccentricity
0.00022
Inclination
86.3929°
RAAN
89.4918°
Arg. of periapsis
89.5138°
True anomaly
270.60578°
Mean anomaly
270.6313°
Eccentric anomaly
270.61854°
Mean motion
3.58783 °/min
Orbital period
100.34 mins
BSTAR
0.000093484
Loading maneuver chart data...
Computing Atmospheric mass density...
Loading historical data...
Loading historical data...
Loading historical data...
Loading historical data...
Loading historical data...
Loading historical data...
Loading historical data...

Documentation

Showing up to 5 results
|